Вернуться в каталог

STARLINK-5453

АктивенСвязьVLEO
NORAD 54773·PAYLOAD·🇺🇸 United States

Запущен Dec 17, 2022 с Cape Canaveral Space Force Station

Loading…

Ближайшие Пролёты (ближайшие 24 часа)

TLE

СвежийSource: CelesTrak SupGP

Эпоха: Sep 14, 2026, 20:57 UTC

1 54773C 22175R   26257.87340278  .00049444  00000+0  14612-2 0  2571
2 54773  53.1578 264.0884 0001225  83.6872 278.0372 15.34358100    13

Отслеживайте STARLINK-5453 в реальном времени с AllMySat

Download on the App Store